Home   Weather   Limoges   Past weeks

Flag for France Past Weather in Limoges, Limousin, France — Yesterday and Last 2 Weeks

Now
61 °F

Partly cloudy.


Feels Like: 61 °F
Forecast: 53 / 63 °F
Wind: No wind

Location: Limoges Airport

Current Time: Oct 1, 2016 at 12:09:41 AM

Latest Report: Sep 30, 2016 at 11:30 PM


Visibility: N/A

Pressure: 29.92 "Hg

Humidity: 94%

Dew Point: 59 °F

Location of LimogesLocation

Past Weather in Limoges — Graph

°F

Limoges Temperature Yesterday

Maximum temperature yesterday: 70 °F (at 4:30 PM)
Minimum temperature yesterday: 57 °F (at 8:00 AM)
Average temperature yesterday: 63 °F

High & Low Weather Summary for the Past Weeks

 TemperatureHumidityPressure
High77 °F (Sep 24, 3:00 PM)100% (Sep 16, 3:30 PM)30.45 "Hg (Sep 16, 3:30 PM)
Low48 °F (Sep 18, 3:00 AM)33% (Sep 27, 5:00 PM)29.92 "Hg (Sep 30, 9:30 PM)
Average60 °F72%30.16 "Hg
* Reported Sep 15 11:00 PM — Sep 30 11:00 PM, Limoges, Weather by CustomWeather, © 2016

Note: Actual official high and low records may vary slightly from our data, if they occured in-between our weather recording intervals... More about our weather records

Advertising

Limoges Weather History for the Previous 24 Hours

Scroll right to see more
 ConditionsComfort  
Time TempWeatherWind HumidityBarometerVisibility
11:00 PM
Fri, Sep 30
61 °FCool.6 mph94%29.92 "HgN/A
10:30 PM63 °FMild.2 mph88%29.92 "HgN/A
10:00 PM63 °FLight rain. Overcast.1 mph88%29.92 "HgN/A
9:30 PM64 °FMild.2 mph78%29.92 "HgN/A
9:00 PM64 °FMild.6 mph78%29.95 "HgN/A
8:30 PM64 °FMild.5 mph78%29.95 "HgN/A
8:00 PM66 °FMild.7 mph73%29.95 "HgN/A
7:30 PM66 °FSunny.6 mph73%29.95 "Hg10 mi
7:00 PM66 °FSunny.3 mph78%29.95 "Hg10 mi
6:30 PM68 °FSunny.3 mph73%29.95 "Hg10 mi
6:00 PM70 °FPassing clouds.5 mph64%29.95 "HgN/A
5:30 PM70 °FPassing clouds.7 mph64%29.95 "HgN/A
5:00 PM70 °FScattered clouds.8 mph64%29.95 "HgN/A
4:30 PM70 °FPartly sunny.9 mph69%29.98 "HgN/A
4:00 PM68 °FBroken clouds.7 mph69%29.98 "HgN/A
3:30 PM68 °FPartly sunny.8 mph69%29.98 "HgN/A
3:00 PM68 °FMostly cloudy.12 mph69%30.01 "HgN/A
2:30 PM66 °FCloudy.9 mph78%30.01 "HgN/A
2:00 PM66 °FPartly sunny.9 mph73%30.04 "HgN/A
1:30 PM66 °FMostly cloudy.14 mph78%30.04 "HgN/A
1:00 PM64 °FMostly cloudy.10 mph78%30.04 "HgN/A
12:30 PM63 °FMostly cloudy.8 mph83%30.07 "HgN/A
12:00 PM61 °FMostly cloudy.8 mph88%30.07 "HgN/A
11:30 AM61 °FMostly cloudy.8 mph88%30.07 "HgN/A
11:00 AM61 °FMore clouds than sun.7 mph88%30.07 "HgN/A
10:30 AM61 °FOvercast.10 mph88%30.07 "HgN/A
10:00 AM61 °FMore clouds than sun.7 mph88%30.07 "HgN/A
9:30 AM59 °FMostly cloudy.7 mph94%30.07 "HgN/A
9:00 AM57 °FLow clouds.7 mph100%30.07 "Hg5 mi
8:30 AM57 °FLow clouds.6 mph100%30.07 "Hg4 mi
8:00 AM57 °FFog.3 mph100%30.07 "Hg2 mi
7:30 AM59 °FFog.5 mph94%30.07 "Hg3 mi
7:00 AM59 °FMostly cloudy.3 mph94%30.07 "Hg4 mi
6:30 AM59 °FMostly cloudy.5 mph94%30.07 "Hg5 mi
6:00 AM59 °FPassing clouds.5 mph94%30.07 "HgN/A
5:30 AM59 °FLow clouds.5 mph94%30.07 "HgN/A
5:00 AM61 °FLow clouds.6 mph88%30.07 "HgN/A
4:30 AM61 °FOvercast.7 mph88%30.07 "HgN/A
4:00 AM61 °FOvercast.9 mph88%30.07 "HgN/A
3:30 AM61 °FMostly cloudy.7 mph88%30.09 "HgN/A
3:00 AM61 °FOvercast.8 mph88%30.09 "HgN/A
2:30 AM61 °FOvercast.8 mph83%30.09 "HgN/A
2:00 AM61 °FMostly cloudy.9 mph88%30.09 "HgN/A
1:30 AM59 °FPassing clouds.6 mph94%30.09 "HgN/A
1:00 AM61 °FPassing clouds.5 mph83%30.09 "HgN/A
12:30 AM61 °FClear.5 mph72%30.09 "Hg10 mi
12:00 AM63 °FPassing clouds.5 mph68%30.09 "HgN/A
Weather by CustomWeather, © 2016

See weather overviewHow to use our weather pages